Tracking 30743 objects as of 22-Jun-2025
HD Live streaming from Space Station
objects crossing your sky now

STARLINK-6094

Track STARLINK-6094 now!
10-day predictions
STARLINK-6094 is classified as:


NORAD ID: 56122
Int'l Code: 2023-046AF
Perigee: 565.5 km
Apogee: 567.1 km
Inclination: 43.0 °
Period: 95.8 minutes
Semi major axis: 6937 km
RCS: Unknown
Launch date: March 29, 2023
Source: United States (US)
Launch site: AIR FORCE EASTERN TEST RANGE (AFETR)
Your satellite tracking list
Your tracking list is empty




NASA's NSSDC Master Catalog

Two Line Element Set (TLE):
1 56122U 23046AF  25172.94403328 -.00001475  00000-0 -94212-4 0  9992
2 56122  43.0028 135.3712 0001166 290.3496  69.7221 15.02522794122845
Source of the keplerian elements: AFSPC